This is the latest recevied weather packets stored in our database for station/object N1ICS-1. If no packets are shown the sender has not sent any weather packets the latest 10 day(s).
| Time | Temp. | Humidity | Pressure | Rain* | Wind** | Luminosity | Snow |
|---|---|---|---|---|---|---|---|
| 1777410302 | 15.56° C | 82% | 1015 hPa | 0 mm | - | 226 W/m² | - |
| 1777410003 | 15.56° C | 82% | 1015.1 hPa | 0 mm | - | 334 W/m² | - |
| 1777409702 | 15.56° C | 83% | 1015.3 hPa | 0 mm | - | 219 W/m² | - |
| 1777409402 | 15° C | 82% | 1015.3 hPa | 0 mm | - | 269 W/m² | - |
| 1777409102 | 15° C | 83% | 1015.3 hPa | 0 mm | - | 170 W/m² | - |
| 1777408802 | 15° C | 84% | 1015.5 hPa | 0 mm | - | 246 W/m² | - |
| 1777408501 | 15° C | 85% | 1015.4 hPa | 0 mm | - | 178 W/m² | - |
| 1777408202 | 15° C | 85% | 1015.7 hPa | 0 mm | - | 258 W/m² | - |
| 1777407902 | 15° C | 84% | 1015.5 hPa | 0 mm | - | 186 W/m² | - |
| 1777407602 | 15.56° C | 84% | 1015.5 hPa | 0 mm | - | 280 W/m² | - |
| 1777407302 | 15.56° C | 85% | 1015.5 hPa | 0 mm | - | 309 W/m² | - |
| 1777407002 | 15° C | 84% | 1015.4 hPa | 0 mm | - | 206 W/m² | - |
| 1777406702 | 15° C | 83% | 1015.4 hPa | 0 mm | - | 234 W/m² | - |
| 1777406403 | 15.56° C | 83% | 1015.4 hPa | 0 mm | - | 269 W/m² | - |
| 1777406102 | 16.11° C | 85% | 1015.4 hPa | 0 mm | - | 442 W/m² | - |
| 1777405803 | 15.56° C | 83% | 1015.5 hPa | 0 mm | - | 437 W/m² | - |
| 1777405502 | 15.56° C | 84% | 1015.5 hPa | 0 mm | - | 302 W/m² | - |
| 1777405202 | 15.56° C | 82% | 1015.6 hPa | 0 mm | - | 317 W/m² | - |
| 1777404902 | 16.11° C | 82% | 1015.7 hPa | 0 mm | - | 371 W/m² | - |
| 1777404602 | 15.56° C | 82% | 1015.8 hPa | 0 mm | - | 397 W/m² | - |
| 1777404302 | 15.56° C | 83% | 1015.6 hPa | 0 mm | - | 398 W/m² | - |
| 1777404002 | 15.56° C | 82% | 1015.7 hPa | 0 mm | - | 659 W/m² | - |
| 1777403702 | 15.56° C | 81% | 1015.7 hPa | 0 mm | - | 430 W/m² | - |
| 1777403402 | 15.56° C | 81% | 1015.6 hPa | 0 mm | - | 530 W/m² | - |
| 1777403102 | 15.56° C | 81% | 1015.5 hPa | 0 mm | - | 672 W/m² | - |
* Rain latest hour (hover to see other rain measurements)
** Current wind speed in m/s (hover to see current wind gust speed)